Time,B instrument,Bx,By,Bz,sigma B,Ion instrument,Status,Tp_par,Tp_perp,carrot,r_sun,clat,clong,earth_he_angle,n_p,vp_x,vp_y,vp_z,vth_p_par,vth_p_perp
1980-05-21 00:00:46,1,-28.3027,0.121622,-16.2514,7.30417,1,1,87958.0,202861.0,1695,0.35436237,-5.4311018,212.74097,326.96753,24.8166,358.973,-71.2355,-69.9538,38.1062,57.8705
1980-05-21 00:02:07,1,-25.9056,6.43889,-19.0361,6.81882,1,1,84187.8,186680.0,1695,0.35434836,-5.4304771,212.73535,326.97363,21.7487,362.521,-45.2961,-77.9295,37.2806,55.5145
1980-05-21 00:03:28,1,-29.5,-5.3625,-12.935,6.80361,1,1,81264.7,266154.0,1695,0.35434133,-5.4301653,212.72656,326.97656,28.3528,351.668,-81.1058,-59.1529,36.6276,66.2863
1980-05-21 00:04:49,1,-27.5108,-2.74595,-17.7189,7.23857,1,1,105311.0,193821.0,1695,0.35433429,-5.4298525,212.71802,326.97974,22.4822,359.045,-78.3179,-77.0836,41.696,56.5664
1980-05-21 00:06:10,1,-16.2697,21.7152,-17.7788,10.3935,1,1,102256.0,187820.0,1695,0.35432023,-5.4292278,212.7124,326.98584,25.0095,396.447,6.91753,-88.9891,41.0868,55.6838
1980-05-21 00:07:31,1,-21.6,10.6139,-23.425,3.20508,1,1,104592.0,204598.0,1695,0.35431319,-5.428915,212.70386,326.98901,29.0081,380.105,-27.8419,-97.1057,41.5535,58.1177
1980-05-21 00:08:52,1,-23.9784,9.41892,-17.6757,12.9304,1,1,134648.0,178669.0,1695,0.35430616,-5.4286022,212.69116,326.99194,29.4753,371.683,-41.5336,-101.927,47.1474,54.3103
1980-05-21 00:10:13,1,-31.1562,4.40313,-12.6344,2.43773,1,1,79440.3,188443.0,1695,0.35429209,-5.4279776,212.68579,326.99829,23.6793,345.267,-55.4413,-50.392,36.2142,55.776
1980-05-21 00:12:55,1,-33.0086,1.7,-1.76,2.6945,1,1,74087.0,210316.0,1695,0.35427803,-5.4273529,212.66846,327.00439,23.758,342.936,-57.8475,-8.26138,34.9727,58.9243
1980-05-21 00:14:16,1,-31.6257,9.18857,-7.48,2.31947,1,1,70205.9,195462.0,1695,0.35426396,-5.4267282,212.66284,327.0105,23.6649,345.586,-34.9476,-22.1553,34.0443,56.8054
1980-05-21 00:15:37,1,-32.3545,9.01212,-2.1,2.07581,1,1,80837.0,201972.0,1695,0.35425693,-5.4264154,212.65039,327.01367,24.5699,347.543,-27.048,-11.9513,36.5311,57.7436
1980-05-21 00:16:58,1,-13.6564,30.4359,-5.08205,4.18545,1,1,73901.4,230031.0,1695,0.35424989,-5.4261036,212.6416,327.0166,24.1218,407.215,49.5538,-24.2147,34.9288,61.6241
1980-05-21 00:18:19,1,-9.87895,30.8447,-0.955263,11.2141,1,1,89716.9,189388.0,1695,0.35423583,-5.4254789,212.63623,327.02295,26.385,416.285,49.3687,-4.81034,38.4853,55.9157
1980-05-21 00:19:40,1,-15.1091,30.1121,-3.01818,4.68935,1,1,82889.3,253033.0,1695,0.35422879,-5.4251661,212.62744,327.02588,28.9476,411.577,47.4487,-10.6302,36.9919,64.6318
1980-05-21 00:21:01,1,-32.8294,7.32647,-0.0676471,3.25428,1,1,80956.9,190774.0,1695,0.35421479,-5.4245415,212.62183,327.03198,25.2666,342.671,-51.0493,1.73116,36.5582,56.12
1980-05-21 00:22:22,1,-33.1606,5.9303,1.49697,2.56549,1,1,71793.6,201207.0,1695,0.35420775,-5.4242287,212.61328,327.03516,24.8088,345.432,-34.9106,16.5105,34.4271,57.6341
1980-05-21 00:23:43,1,-33.2065,1.02903,1.00645,4.16228,1,1,78248.7,188658.0,1695,0.35420072,-5.4239168,212.60083,327.03833,25.5271,344.175,-72.7054,11.0685,35.9415,55.8079
1980-05-21 00:25:04,1,-33.2433,2.31333,-4.95,2.46376,1,1,78794.0,186193.0,1695,0.35418665,-5.4232922,212.59521,327.04443,25.0288,345.199,-58.648,-20.089,36.0665,55.4421
1980-05-21 00:26:25,1,-12.4075,25.7975,-17.1875,3.4711,1,1,82666.0,239765.0,1695,0.35417962,-5.4229794,212.58667,327.04761,28.9241,420.524,30.6902,-74.3289,36.9421,62.9145
1980-05-21 00:27:46,1,-29.4563,11.8187,-11.3656,4.22943,1,1,77689.6,196583.0,1695,0.35417259,-5.4226665,212.57788,327.05054,25.1277,350.595,-42.6221,-37.1491,35.8129,56.968
1980-05-21 00:29:07,1,-26.5694,15.9167,-13.4583,2.68066,1,1,76395.4,184168.0,1695,0.35415852,-5.4220419,212.57227,327.05664,21.3025,364.688,-0.953919,-49.4222,35.5133,55.1398
1980-05-21 00:30:28,1,-27.8265,13.5941,-11.9412,3.1611,1,1,78529.0,194285.0,1695,0.35415149,-5.4217291,212.56372,327.05981,24.0603,357.576,-19.7602,-36.7902,36.0058,56.634
1980-05-21 00:31:49,1,-21.36,11.8457,-22.5657,4.26316,1,1,106267.0,228213.0,1695,0.35414445,-5.4214172,212.55127,327.06299,34.7906,384.294,-36.201,-107.089,41.8848,61.3802
1980-05-21 00:33:10,1,-23.7194,17.4028,-15.1222,6.61633,1,1,78930.0,201260.0,1695,0.35413039,-5.4207926,212.54565,327.06909,23.3972,372.934,-9.96824,-69.2209,36.0976,57.6417
1980-05-21 00:35:52,1,-28.7188,9.95625,-12.8875,7.03043,1,1,77158.0,193935.0,1695,0.35411632,-5.420167,212.52832,327.0752,22.4757,367.544,-0.223454,-52.836,35.6902,56.583
1980-05-21 00:56:13,1,-29.7676,2.69412,-15.5088,4.37937,1,1,79627.0,181004.0,1695,0.35396868,-5.4136066,212.40552,327.13989,20.7007,349.212,-53.2703,-54.194,36.2567,54.6641
1980-05-21 00:57:35,1,-32.8763,2.98947,-6.32632,5.62026,1,1,77687.5,197371.0,1695,0.35396165,-5.4132938,212.39697,327.14307,25.0739,338.91,-68.3915,-11.5188,35.8124,57.082
1980-05-21 00:58:56,1,-32.3688,-1.04688,-8.2625,5.67633,1,1,75284.9,216100.0,1695,0.35395461,-5.412981,212.38818,327.146,25.4779,340.252,-61.2587,-23.8687,35.2543,59.729
1980-05-21 01:00:17,1,-33.6774,-0.1,-2.69355,1.66784,1,1,72161.3,198870.0,1695,0.35394061,-5.4123564,212.37891,327.15234,24.3175,340.081,-62.1187,-4.96711,34.5152,57.2984
1980-05-21 01:01:38,1,-32.1286,12.0257,-2.27429,2.52069,1,1,82625.1,193759.0,1695,0.35393357,-5.4120426,212.37012,327.15527,24.1619,344.368,-22.9536,-9.82628,36.9329,56.5573
1980-05-21 01:02:59,1,-28.3455,14.2879,-11.9848,4.26415,1,1,79671.0,211967.0,1695,0.35392654,-5.4117279,212.36157,327.15845,25.1013,360.455,-14.1565,-53.6849,36.2667,59.1551
1980-05-21 01:04:20,1,-23.5927,15.5537,-18.0756,6.13126,1,1,120187.0,210391.0,1695,0.35391253,-5.4110985,212.35596,327.16455,38.6837,392.884,1.16285,-108.661,44.5438,58.9348
1980-05-21 01:05:41,1,-21.8226,17.5161,-18.8935,3.42521,1,1,92459.8,202946.0,1695,0.35390556,-5.4107838,212.34741,327.16772,22.4957,381.258,8.95604,-75.5519,39.0692,57.8826
1980-05-21 01:07:02,1,-18.397,13.0485,24.7242,3.69321,1,1,80501.4,228032.0,1695,0.35389149,-5.4101553,212.3418,327.17383,22.5438,403.015,-26.4912,101.711,36.4552,61.3558
1980-05-21 01:08:23,1,-22.5179,24.7359,5.92051,5.89739,1,1,66009.8,201346.0,1695,0.35388452,-5.4098406,212.32935,327.177,22.6045,378.976,34.9696,3.1805,33.0113,57.654
1980-05-21 01:09:44,1,-27.9868,19.8158,4.55526,3.70898,1,1,62660.7,181046.0,1695,0.35387748,-5.4095259,212.32056,327.17993,18.98,356.012,14.5807,24.1148,32.1629,54.6705
1980-05-21 01:11:05,1,-25.7152,18.9727,15.3939,3.95615,1,1,65261.1,164433.0,1695,0.35386348,-5.4088974,212.31494,327.18604,18.9898,367.732,21.3147,40.9274,32.8235,52.1018
1980-05-21 01:12:26,1,-25.9938,21.3938,11.9219,2.84776,1,1,57065.4,192147.0,1695,0.3538565,-5.4085827,212.3064,327.18921,23.7985,367.45,23.0854,32.5999,30.6934,56.3215
1980-05-21 01:13:47,1,-28.9281,16.8062,12.6156,3.85408,1,1,56672.6,181467.0,1695,0.35384947,-5.408268,212.29785,327.19238,21.1155,351.963,-4.21586,31.3871,30.5875,54.734
1980-05-21 01:15:08,1,-28.8,16.1697,12.3606,4.51861,1,1,64805.9,179969.0,1695,0.35383546,-5.4076395,212.29224,327.19849,20.995,351.301,-7.85787,38.7798,32.7088,54.5076
1980-05-21 01:16:29,1,-13.3528,-4.31944,27.875,8.93208,1,1,110448.0,174081.0,1695,0.35382843,-5.4073248,212.27979,327.20166,20.7224,436.46,-73.8179,109.829,42.7009,53.6086
1980-05-21 01:17:50,1,-8.1,-10.9108,27.9,4.95917,1,1,73580.1,195153.0,1695,0.35382146,-5.4070101,212.271,327.20459,20.3615,444.029,-116.528,100.694,34.8528,56.7604
1980-05-21 01:19:11,1,-13.4147,2.02353,30.1088,5.33488,1,1,131002.0,242030.0,1695,0.35380739,-5.4063807,212.26563,327.21094,30.5134,415.511,-41.0183,110.793,46.5046,63.2109
1980-05-21 01:20:32,1,-13.2743,-4.47143,29.0514,8.2229,1,1,110941.0,208854.0,1695,0.35380042,-5.4060659,212.25684,327.21387,25.7939,431.047,-69.0723,108.86,42.7962,58.7191
1980-05-21 01:21:53,1,-19.45,6.80588,27.5794,5.64347,1,1,69723.0,209294.0,1695,0.35379338,-5.4057512,212.24829,327.21704,22.1666,384.093,-45.5424,90.0919,33.927,58.781
1980-05-21 01:23:14,1,-23.3568,11.8946,23.7135,5.48194,1,1,71259.5,251942.0,1695,0.35377938,-5.4051228,212.23877,327.22314,26.1929,371.662,-10.9142,71.0032,34.2988,64.4923
1980-05-21 01:24:35,1,-27.6515,21.0091,11.5939,2.35107,1,1,65201.6,200980.0,1695,0.35377234,-5.404808,212.23022,327.22632,23.6581,358.144,22.3107,26.983,32.8086,57.6015
1980-05-21 01:25:56,1,-27.0688,14.7188,18.7687,2.53418,1,1,60195.3,190415.0,1695,0.35376537,-5.4044933,212.22144,327.22925,23.0122,355.244,-6.0362,47.6332,31.5238,56.0671
1980-05-21 01:27:17,1,-23.725,20.0406,18.4781,2.80174,1,1,65201.8,197241.0,1695,0.35375136,-5.4038649,212.21606,327.2356,21.7592,374.304,20.685,48.1383,32.8086,57.0632
1980-05-21 01:28:38,1,-26.4474,14.4553,19.2026,3.65686,1,1,63400.3,183445.0,1695,0.35374433,-5.4035501,212.20728,327.23853,20.9575,363.72,-11.2677,58.8632,32.3522,55.0314
1980-05-21 01:29:59,1,-28.8933,17.33,12.81,2.20219,1,1,74639.5,190720.0,1695,0.35373735,-5.4032354,212.19873,327.2417,23.7158,354.505,2.6187,28.1643,35.1028,56.112
1980-05-21 01:31:20,1,-28.0417,21.7111,1.98889,4.63609,1,1,69888.4,195085.0,1695,0.35372329,-5.402607,212.18921,327.2478,22.4344,352.23,19.5343,-20.6582,33.9672,56.7505
1980-05-21 01:32:41,1,-31.6194,10.5161,10.3129,2.79807,1,1,77727.3,187222.0,1695,0.35371631,-5.4022923,212.18066,327.25098,23.248,338.373,-23.9576,23.1668,35.8216,55.5951
1980-05-21 01:34:02,1,-33.7667,5.82222,2.78889,4.77534,1,1,73819.3,187169.0,1695,0.35370231,-5.4016628,212.17505,327.25708,23.04,327.611,-59.291,-17.8003,34.9094,55.5872
1980-05-21 01:35:23,1,-30.0889,6.96389,15.2583,7.12777,1,1,69860.4,177209.0,1695,0.35369527,-5.4013481,212.1665,327.26025,21.2291,356.001,-19.189,56.2518,33.9605,54.088
1980-05-21 01:36:44,1,-23.2927,16.8878,20.4537,5.70454,1,1,70150.8,208733.0,1695,0.35368824,-5.4010344,212.15771,327.26318,24.0685,378.656,-1.52924,62.0403,34.031,58.7021
1980-05-21 01:38:05,1,-25.8844,13.3656,19.4375,5.94261,1,1,70956.1,186409.0,1695,0.35367423,-5.4004049,212.15234,327.26953,22.9822,356.956,-42.1401,67.4257,34.2257,55.4742
1980-05-21 01:39:26,1,-24.05,22.0344,15.3813,2.97112,1,1,66493.8,219610.0,1695,0.35366726,-5.4000902,212.13965,327.27246,25.5702,375.402,22.613,38.8739,33.1321,60.2121
1980-05-21 01:40:47,1,-24.1406,20.8281,17.7188,3.09652,1,1,62403.9,199545.0,1695,0.35366023,-5.3997755,212.1311,327.27563,23.2063,366.7,15.858,42.4728,32.0969,57.3956
1980-05-21 01:42:08,1,-30.4333,-12.5939,6.7,6.64492,1,1,85521.5,178985.0,1695,0.35364622,-5.399147,212.12549,327.28174,22.0166,346.078,-100.005,37.8898,37.5747,54.3584
1980-05-21 01:43:29,1,-29.5312,1.40937,19.0219,2.60139,1,1,67980.0,188427.0,1695,0.35363919,-5.3988323,212.11694,327.28491,21.2505,350.784,-57.081,59.6673,33.5003,55.7738
1980-05-21 01:44:50,1,-30.7437,10.6281,14.5344,6.13264,1,1,66585.4,199840.0,1695,0.35363221,-5.3985176,212.10815,327.28784,25.7177,342.07,-9.17243,23.1664,33.1549,57.4379
1980-05-21 01:46:11,1,-30.5516,16.2194,12.5613,2.42034,1,1,63300.9,193180.0,1695,0.3536182,-5.3978891,212.09888,327.29419,23.8329,345.004,-5.13015,35.3027,32.3268,56.4728
1980-05-21 01:47:32,1,-26.5513,19.1026,13.441,9.19981,1,1,85929.2,215956.0,1695,0.35361117,-5.3975744,212.09009,327.29712,28.0115,368.556,-7.37635,58.1289,37.6642,59.7091
1980-05-21 01:48:53,1,-27.7086,20.7971,10.86,6.83479,1,1,66013.8,183249.0,1695,0.35360414,-5.3972597,212.08154,327.30029,24.1384,353.461,4.67036,33.5711,33.0123,55.002
1980-05-21 01:50:14,1,-29.1719,1.88437,19.8219,3.02067,1,1,68505.1,195111.0,1695,0.35359013,-5.3966303,212.07593,327.3064,24.6531,348.739,-51.0436,59.0147,33.6294,56.7544
1980-05-21 01:51:35,1,-29.8697,9.66061,16.6333,5.35719,1,1,76821.7,181903.0,1695,0.35358316,-5.3963165,212.06738,327.30957,21.67,346.635,-17.7349,46.035,35.6123,54.7996
1980-05-21 01:52:56,1,-27.9763,11.8053,17.3474,7.44599,1,1,66926.2,193529.0,1695,0.35357612,-5.3960018,212.05859,327.3125,23.9604,357.661,13.3099,28.1849,33.2396,56.5237
1980-05-21 01:54:17,1,-29.8447,13.3974,12.6211,7.05021,1,1,63013.4,187139.0,1695,0.35356212,-5.3953724,212.04932,327.31885,23.7305,348.169,7.0794,23.874,32.2533,55.5828
1980-05-21 01:55:38,1,-30.4895,11.3553,13.0105,4.6874,1,1,66219.8,197455.0,1695,0.35355508,-5.3950577,212.04053,327.32178,22.5686,342.271,-13.3476,30.2353,33.0637,57.0942
1980-05-21 01:56:59,1,-22.525,-13.5075,18.575,7.46967,1,1,86955.8,169856.0,1695,0.35354811,-5.394743,212.03198,327.32495,21.8852,387.709,-108.669,62.4934,37.8885,52.954
1980-05-21 01:58:20,1,-18.8088,-6.29412,26.3029,4.88165,1,1,79424.8,213126.0,1695,0.3535341,-5.3941145,212.02637,327.33105,22.4079,398.702,-66.9453,99.5988,36.2106,59.3166
1980-05-21 01:59:41,1,-26.755,-1.42,19.8525,6.17767,1,1,80553.2,182114.0,1695,0.35352707,-5.3937998,212.01782,327.33423,20.8106,376.528,-76.0129,82.0553,36.4669,54.8314
1980-05-21 02:01:02,1,-26.2394,-0.666667,19.8636,7.6552,1,1,62359.0,205268.0,1695,0.35351306,-5.3931684,212.01221,327.34033,21.9349,348.935,-72.7528,46.0773,32.0854,58.2128
1980-05-21 02:03:45,1,-30.0625,11.9875,15.8844,3.80309,1,1,69243.9,189660.0,1695,0.35349911,-5.3925352,211.99121,327.34668,23.1223,346.439,-10.6052,37.71,33.8103,55.9559
1980-05-21 02:05:05,1,-31.0312,12.8594,12.4969,5.82445,1,1,65138.4,190279.0,1695,0.35348517,-5.391902,211.9856,327.35278,22.7207,362.722,17.6675,34.837,32.7927,56.0471
1980-05-21 02:06:26,1,-32.4622,11.4973,11.173,4.95807,1,1,68993.2,186624.0,1695,0.35347813,-5.3915854,211.97705,327.35596,21.7705,347.738,-8.79672,36.9913,33.749,55.5062
1980-05-21 02:07:47,1,-33.9,-5.43784,8.83784,5.42904,1,1,69235.2,149048.0,1695,0.35347116,-5.3912687,211.96826,327.35889,21.0123,337.025,-94.72,23.4057,33.8081,49.6044
1980-05-21 02:09:08,1,-31.5516,14.971,11.7581,4.02707,1,1,74746.8,218357.0,1695,0.35345721,-5.3906355,211.96289,327.36523,28.2416,346.283,-15.792,28.2893,35.1281,60.0402
1980-05-21 02:10:29,1,-30.6939,12.8152,15.4545,4.36835,1,1,84247.7,195921.0,1695,0.35345024,-5.3903189,211.9502,327.36816,26.3841,360.457,-15.0439,54.6204,37.2938,56.872
1980-05-21 02:11:50,1,-35.2054,8.00541,7.05135,1.51381,1,1,73289.1,194153.0,1695,0.35344321,-5.3900013,211.94165,327.37134,26.2882,333.28,-38.2278,14.1616,34.7838,56.6148
1980-05-21 02:13:11,1,-34.8,8.75,8.23125,1.86488,1,1,76003.1,193471.0,1695,0.35342926,-5.3893681,211.93604,327.37744,27.3104,335.796,-36.9159,19.9207,35.422,56.5152
1980-05-21 02:14:32,1,-33.6882,13.1941,8.39706,3.0927,1,1,76773.0,196765.0,1695,0.35342228,-5.3890514,211.92749,327.38062,26.0731,343.431,-19.698,35.1981,35.601,56.9944
1980-05-21 02:15:53,1,-33.5588,15.3118,4.19412,1.38539,1,1,76335.3,192502.0,1695,0.35341531,-5.3887348,211.91895,327.38379,25.4901,334.591,-16.5932,2.80686,35.4994,56.3736
1980-05-21 02:17:14,1,-33.475,13.6906,5.9125,1.76531,1,1,78003.4,183877.0,1695,0.3534013,-5.3881016,211.90942,327.38989,25.7477,337.307,-14.0543,4.95535,35.8851,55.0962
1980-05-21 02:18:35,1,-33.7935,13.8548,3.20645,1.26662,1,1,76875.2,183268.0,1695,0.35339433,-5.387785,211.90088,327.39307,25.3956,338.019,-11.2658,4.73809,35.6247,55.0049
1980-05-21 02:19:56,1,-34.2324,12.8971,1.59706,2.61811,1,1,72946.4,192278.0,1695,0.35338736,-5.3874683,211.89209,327.396,25.1446,334.595,-17.1895,-7.85061,34.7024,56.3408
1980-05-21 02:21:17,1,-32.075,17.6781,3.58125,2.51833,1,1,74986.3,185626.0,1695,0.35337341,-5.3868351,211.88672,327.40234,25.1156,338.961,-7.70081,-6.45891,35.1843,55.3576
1980-05-21 02:22:38,1,-31.9943,13.6771,10.6714,1.86204,1,1,80648.9,187758.0,1695,0.35336637,-5.3865185,211.87817,327.40552,25.7795,343.934,-21.9443,32.4147,36.4886,55.6746
1980-05-21 02:23:59,1,-33.8229,12.9286,0.768571,3.56574,1,1,79152.6,187733.0,1695,0.3533594,-5.3862009,211.86938,327.40845,26.1138,332.28,-23.8607,-12.758,36.1485,55.671
1980-05-21 02:25:20,1,-28.5714,18.2743,13.3486,5.92314,1,1,71672.4,170420.0,1695,0.35334545,-5.3855677,211.86011,327.41479,23.9055,358.759,-3.53091,41.3463,34.3981,53.0418
1980-05-21 02:26:41,1,-29.1032,18.4742,13.1742,1.457,1,1,78340.0,197532.0,1695,0.35333848,-5.385251,211.85132,327.41772,27.1268,357.482,4.24429,31.6312,35.9625,57.1053
1980-05-21 02:28:02,1,-23.5556,25.6167,13.6444,2.5182,1,1,70402.7,207159.0,1695,0.35332447,-5.3846178,211.84595,327.42407,26.1802,377.373,27.9576,37.4337,34.092,58.4803
1980-05-21 02:29:23,1,-24.6806,24.6556,12.8,3.31556,1,1,83314.4,180648.0,1695,0.3533175,-5.3843012,211.83716,327.427,25.2928,366.554,14.9394,28.9059,37.0867,54.6104
1980-05-21 02:30:44,1,-26.43,23.495,10.465,4.67887,1,1,78322.5,176814.0,1695,0.35331053,-5.3839846,211.82861,327.43018,25.0113,365.236,15.1615,31.0614,35.9585,54.0277
1980-05-21 02:32:05,1,-29.5688,15.225,15.4187,3.38562,1,1,77712.2,184155.0,1695,0.35329658,-5.3833513,211.823,327.43628,26.0167,359.142,-12.5505,49.9678,35.8181,55.1379
1980-05-21 02:33:26,1,-28.9813,17.85,13.9156,4.526,1,1,80996.0,184049.0,1695,0.35328954,-5.3830347,211.81055,327.43945,26.7754,357.342,3.77921,28.0177,36.567,55.1219
1980-05-21 02:34:47,1,-26.45,20.345,8.7725,13.1776,1,1,87680.9,305742.0,1695,0.35328257,-5.3827171,211.802,327.44263,29.1435,368.298,5.38324,31.0268,38.0461,71.0454
1980-05-21 02:36:08,1,-29.0432,18.9919,10.673,6.28437,1,1,72053.2,181247.0,1695,0.35326862,-5.3820848,211.79639,327.44873,24.0172,354.771,3.37351,30.6294,34.4893,54.7007
1980-05-21 02:37:29,1,-28.7767,22.57,3.81667,2.50851,1,1,73998.7,193915.0,1695,0.35326165,-5.3817673,211.78784,327.4519,25.9865,356.171,17.1121,2.96594,34.9518,56.5801
1980-05-21 02:40:11,1,-30.6778,10.0806,14.6861,4.47543,1,1,78702.8,188318.0,1695,0.35324067,-5.3808174,211.76978,327.46118,25.2016,346.991,-31.6266,44.2548,36.0457,55.7576
1980-05-21 02:41:32,1,-20.8441,-12.6529,20.5,6.03087,1,1,94221.7,201477.0,1695,0.3532337,-5.3805008,211.76123,327.46436,25.9039,391.372,-116.433,75.489,39.4397,57.6727
1980-05-21 02:42:53,1,-30.0594,4.98125,16.425,6.91752,1,1,79404.9,207952.0,1695,0.35322672,-5.3801842,211.75244,327.46729,26.0769,348.719,-50.7494,52.9093,36.2061,58.5921
1980-05-21 02:44:14,1,-29.4788,14.303,13.7545,7.082,1,1,79271.5,151088.0,1695,0.35321271,-5.3795509,211.74707,327.47363,20.4727,353.677,-12.2344,43.2415,36.1757,49.9428
1980-05-21 02:45:35,1,-26.3324,17.0088,18.3,3.26092,1,1,73955.5,182430.0,1695,0.35320574,-5.3792343,211.73828,327.47656,23.6068,370.53,0.46607,60.4805,34.9416,54.879
1980-05-21 02:46:56,1,-24.0656,22.5688,14.9469,5.50091,1,1,71471.6,182590.0,1695,0.35319877,-5.3789167,211.72974,327.47974,23.9377,370.888,12.8609,45.3458,34.3498,54.9031
1980-05-21 02:48:17,1,-24.9788,19.1909,18.8788,2.68891,1,1,72368.8,191991.0,1695,0.35318482,-5.3782835,211.72021,327.48584,25.7079,378.256,7.56926,63.5334,34.5648,56.2987
1980-05-21 02:49:38,-1,nan,nan,nan,nan,1,-3,nan,nan,1695,0.35317785,-5.3779669,211.71167,327.48901,nan,346.805,-100.523,-6.73048,nan,nan
1980-05-21 02:50:59,1,-34.4452,0.548387,-0.754839,7.63758,1,1,82797.8,165145.0,1695,0.35317081,-5.3776503,211.70313,327.49219,24.2759,337.438,-65.3722,-11.1217,36.9715,52.2145
1980-05-21 02:52:20,1,-33.2844,11.65,4.7125,4.80025,1,1,87049.9,184429.0,1695,0.35315686,-5.377017,211.69751,327.49829,27.766,346.634,-23.5428,19.4063,37.909,55.1788
1980-05-21 02:53:41,1,-33.1282,12.9846,6.77179,1.22693,1,1,74796.6,191641.0,1695,0.35314989,-5.3767004,211.68896,327.50146,27.1489,342.63,-15.4299,13.9148,35.1398,56.2473
1980-05-21 02:55:02,1,-31.8143,16.4429,6.74857,2.66863,1,1,62884.6,189327.0,1695,0.35313588,-5.3760672,211.68335,327.50757,24.601,344.32,-6.49475,21.8109,32.2203,55.9068
1980-05-21 02:56:23,1,-29.96,19.7743,7.49429,1.89503,1,1,63907.9,209688.0,1695,0.35312891,-5.3757505,211.6709,327.51074,26.9115,352.381,9.21684,21.0563,32.4814,58.8362
1980-05-21 02:57:44,1,-29.4872,21.0436,5.83333,3.52073,1,1,69106.4,220373.0,1695,0.35312194,-5.3754339,211.66211,327.51367,29.6973,352.655,11.8391,11.0154,33.7767,60.3166
1980-05-21 02:59:05,1,-29.2121,20.9394,0.972727,6.80343,1,1,79340.9,177527.0,1695,0.35310799,-5.3748007,211.65674,327.52002,23.927,360.757,24.2714,-15.2725,36.1915,54.1364
1980-05-21 03:00:26,1,-28.4387,18.1645,-10.7742,6.07609,1,1,70082.2,178404.0,1695,0.35310102,-5.3744831,211.64819,327.52319,24.2704,351.814,-4.96641,-39.831,34.0143,54.2701
1980-05-21 03:01:47,1,-26.8667,23.4694,-5.20278,3.47533,1,1,71726.9,191993.0,1695,0.35309404,-5.3741646,211.6394,327.52612,26.4801,359.141,12.6751,-35.9204,34.4111,56.299
1980-05-21 03:03:08,1,-25.0484,12.4419,-21.1258,2.72428,1,1,84810.2,175847.0,1695,0.35308009,-5.3735266,211.63403,327.53247,23.4931,363.682,-16.1915,-74.2135,37.4181,53.8797
1980-05-21 03:04:29,1,-27.0,15.8632,-15.0579,3.91025,1,1,86305.9,178720.0,1695,0.35307312,-5.373208,211.62134,327.5354,24.5905,355.525,-11.0873,-63.5327,37.7466,54.3181
1980-05-21 03:05:50,1,-21.3629,19.9771,-18.2714,4.09416,1,1,87259.9,226297.0,1695,0.35306615,-5.3728895,211.61279,327.53857,28.5879,378.792,-0.223483,-86.133,37.9547,61.1219
1980-05-21 03:07:11,1,-23.0433,21.0133,-15.1133,3.77864,1,1,75980.2,181558.0,1695,0.35305226,-5.3722515,211.60742,327.54492,25.9497,368.188,2.20691,-68.4621,35.4167,54.7476
1980-05-21 03:08:32,1,-24.6387,23.4419,-3.5,7.49466,1,1,87941.7,150536.0,1695,0.35304528,-5.371933,211.59863,327.54785,24.6825,368.117,18.1268,11.1489,38.1027,49.8514
1980-05-21 03:09:53,1,-20.7778,27.0222,10.1639,3.20723,1,1,68005.3,185306.0,1695,0.35303831,-5.3716135,211.59009,327.55103,29.8398,374.984,26.1753,19.4592,33.5065,55.3099
1980-05-21 03:11:14,1,-23.3306,25.9417,1.31111,6.24357,1,1,65521.4,165727.0,1695,0.35302442,-5.3709764,211.58057,327.55713,25.3664,369.28,27.603,1.57783,32.8889,52.3064
1980-05-21 03:12:35,1,-27.8029,20.1714,-6.02,3.41817,1,1,70916.7,168362.0,1695,0.35301745,-5.370657,211.57202,327.5603,25.2523,355.673,8.52459,-27.9981,34.2162,52.7206
1980-05-21 03:13:56,1,-31.1125,12.6406,-5.77813,4.67843,1,1,65385.5,175647.0,1695,0.35301048,-5.3703384,211.56348,327.56348,25.6872,338.872,-23.3543,-20.6194,32.8548,53.8491
1980-05-21 03:15:17,1,-28.7861,-8.25278,-10.6361,11.124,1,1,93645.0,168938.0,1695,0.35299659,-5.3697004,211.55786,327.56958,25.0733,363.508,-115.997,-38.701,39.3188,52.8106
1980-05-21 03:16:38,1,-26.2297,-16.7189,-13.4162,3.35416,1,1,92970.7,167773.0,1695,0.35298961,-5.3693819,211.54932,327.57275,23.1509,357.256,-111.363,-35.7707,39.177,52.6282
1980-05-21 03:17:59,-1,nan,nan,nan,nan,1,-3,nan,nan,1695,0.35298264,-5.3690624,211.54077,327.57593,nan,355.04,-13.146,-101.363,nan,nan
1980-05-21 03:19:20,1,-30.5737,13.6632,-9.28158,3.37748,1,1,67593.6,180145.0,1695,0.35296869,-5.3684254,211.53125,327.58203,26.7454,342.49,-20.1366,-31.284,33.4049,54.5342
1980-05-21 03:20:41,1,-31.6684,11.1895,-9.41316,3.00316,1,1,70140.7,171020.0,1695,0.35296172,-5.3681059,211.52271,327.58521,25.2153,339.493,-37.5742,-40.2094,34.0285,53.1351
1980-05-21 03:22:02,1,-31.7437,8.28438,-10.825,2.44375,1,1,71602.9,172182.0,1695,0.35294783,-5.3674688,211.51709,327.59131,23.9731,338.923,-36.3248,-33.984,34.3814,53.3152
1980-05-21 03:23:23,1,-33.3133,6.05667,-6.07667,2.80334,1,1,77154.0,188821.0,1695,0.35294086,-5.3671494,211.50854,327.59448,25.3021,333.296,-50.7101,-20.0586,35.6892,55.8319
1980-05-21 03:24:44,1,-31.6844,5.75312,-12.1813,2.30943,1,1,65282.7,181274.0,1695,0.35293388,-5.3668308,211.5,327.59766,24.1171,338.792,-39.4992,-43.8206,32.8289,54.7049
1980-05-21 03:26:05,1,-31.0412,1.41471,-15.8765,2.65987,1,1,64645.3,159578.0,1695,0.35292,-5.3661928,211.49438,327.60376,23.5275,346.364,-47.9877,-54.6434,32.6683,51.3268
1980-05-21 03:27:26,1,-29.1086,-9.71143,-15.92,4.876,1,1,78496.8,143243.0,1695,0.35291302,-5.3658743,211.48193,327.60693,21.6537,352.205,-97.0344,-52.4184,35.9985,48.6289
1980-05-21 03:28:47,1,-32.23,-3.6025,-11.6525,6.50664,1,1,81326.8,157753.0,1695,0.35290605,-5.3655558,211.47339,327.61011,25.7501,350.833,-99.356,-34.414,36.6416,51.0325
1980-05-21 03:30:08,1,-13.4121,28.9273,-4.71515,12.1028,1,1,101304.0,193250.0,1695,0.35289216,-5.3649178,211.46777,327.61621,29.5694,361.594,5.12429,-8.73778,40.8952,56.483
1980-05-21 03:31:29,1,-28.4077,-15.3821,-9.0,3.85462,1,1,74799.9,179152.0,1695,0.35288519,-5.3645992,211.45923,327.61938,27.3051,351.063,-114.477,-21.2292,35.1405,54.3837
1980-05-21 03:32:50,1,-23.8619,-19.7238,-5.32857,9.78247,1,1,79580.8,171722.0,1695,0.35287821,-5.3642797,211.45044,327.62231,27.3874,363.54,-126.212,-15.2338,36.2462,53.244